Погода в Большой Кандале

Россия / Ульяновская область     54°33′00″N   49°20′55″E
темп.,
°C
ветер,
м/с
пор.,
м/с
влажн.,
%
обл.,
%
осадки,
мм/ч
давл.,
гПа
погр.,
м
15 апреля, чт
чт1501:00+10ююв36881 0.0 102388
04:00+9юв34880 0.0 102252
07:00+9юв37830 0.0 1022119
10:00+15ююв46580 0.0 1021327
13:00+19ююв45450 0.0 1020907
16:00+20ююз45400 0.0 10191142
19:00+16юз11570 0.0 101811
22:00+13св116414 0.0 101910
16 апреля, пт
пт1601:00+11в227110 0.0 101910
04:00+10ссв237764 0.0 102033
07:00+8ссв368761 0.0 1020146
10:00+13св566791 0.0 1021487
13:00+17св4456100 0.0 1021926
16:00+17св555690 0.0 10211084
19:00+14св486765 0.0 1022318
22:00+9св5117419 0.0 1024358
17 апреля, сб
сб1701:00+8св411825 0.0 1024308
04:00+6св410875 0.0 1025284
07:00+6св4108339 0.0 1025359
10:00+10всв585622 0.0 1026591
13:00+13всв66395 0.0 10251045
16:00+14всв56340 0.0 10241202
19:00+11св48465 0.0 1024282
22:00+7св411570 0.0 1024239
18 апреля, вс
вс1801:00+5всв410634 0.0 1024210
04:00+4всв39695 0.0 1024179
07:00+4всв39670 0.0 1024259
10:00+10всв67470 0.0 1023763
13:00+13всв56371 0.0 10221305
16:00+13всв663692 0.0 10221688
19:00+11св51048100 0.0 1022516
22:00+7всв61368100 0.0 1024639
19 апреля, пн
пн1901:00+5всв61254100 0.0 1025612
04:00+3всв6115595 0.0 1026500
07:00+2всв7125971 0.0 1027695
10:00+4всв81151100 0.0 1028971
13:00+7всв8939100 0.0 10281608
16:00+8всв793193 0.0 10281890
19:00+6всв610343 0.0 10291230
22:00+3всв612390 0.0 1031601